Terminal Aerodrome Forecast
Issued by NWS Midland/Odessa, TX

Home | Current Version | Previous Version | Text Only | Print | Product List | Glossary On
Versions: 1 2 3 4 5 6 7 8 9 10 11 12 13 14 15 16 17
566
FTUS44 KMAF 260600 AAB
TAFMAF
TAF AMD
KMAF 260600Z 2606/2706 30014KT P6SM FEW050 BKN250
     FM261500 33015G25KT P6SM SCT050 SCT250
     FM270100 14009KT P6SM SCT200=

USA.gov is the U.S. government's official web portal to all federal, state and local government web resources and services.